GFSFLT2_con_sbcape_000.txt.gz
CAPE
0 0 0 0 0 0 3 2 10 88 69 49 55 63 63 59 65 85 102 82 100 117 131 148 146 170 167
0 0 0 0 0 0 0 8 7 1 23 57 67 59 64 69 84 72 75 78 85 93 97 122 122 139 139
0 0 0 0 0 0 0 0 0 7 40 30 47 58 62 70 64 66 70 85 77 71 79 76 84 91 125
0 0 0 0 0 0 0 0 0 0 6 25 41 31 38 42 45 42 36 48 63 55 58 53 53 66 87
8 5 0 0 0 0 0 0 2 1 0 0 0 0 0 9 7 14 23 44 57 90 97 86 90 72 83
0 0 0 0 0 0 9 6 2 1 1 1 1 0 0 0 5 25 45 57 63 66 91 89 75 74 69
0 0 0 0 3 4 0 5 7 2 9 6 0 0 0 0 6 16 29 42 47 59 90 85 78 78 90
0 0 5 2 0 1 1 5 2 0 1 1 0 0 0 0 9 17 31 35 36 57 65 73 79 98 104
33 13 5 8 8 1 0 1 0 0 0 0 0 0 0 0 0 8 20 26 23 35 36 33 40 40 29
0 0 0 0 5 0 1 0 0 0 0 0 0 5 0 0 0 0 0 2 9 10 19 28 32 12 7
0 0 0 0 0 0 0 0 0 0 0 0 0 0 0 0 0 0 0 0 0 0 5 12 22 25 10
1 1 0 0 0 0 0 0 0 0 0 0 0 0 0 0 0 0 0 0 0 0 0 3 17 31 40
4 0 0 0 0 0 0 0 0 0 0 0 0 0 0 0 0 0 0 0 0 0 0 0 0 0 0
1 1 0 0 0 0 0 0 0 0 0 0 0 0 0 0 0 0 0 0 0 0 0 0 0 0 0
0 1 0 0 0 0 0 0 0 0 0 0 0 0 0 0 0 0 0 0 0 0 0 0 0 0 0
0 0 0 0 0 0 0 0 0 0 0 0 0 0 0 0 0 0 0 0 1 0 0 1 0 0 0
0 0 0 0 0 0 0 0 0 0 0 0 0 0 0 0 0 0 0 0 1 1 0 1 0 0 0

GFSFLT2_con_sbcape_006.txt.gz
CAPE
0 0 0 7 8 25 24 23 36 22 26 23 28 39 52 64 71 74 79 89 93 107 125 153 179 200 221
2 3 9 13 17 23 32 15 11 3 12 20 27 31 41 49 60 74 75 83 92 90 106 112 121 125 131
15 18 38 37 34 19 8 3 2 10 17 18 22 25 38 43 48 48 51 56 56 57 64 84 85 95 115
48 67 38 19 32 21 6 10 19 9 8 15 18 17 26 17 17 24 34 39 43 52 55 51 60 76 86
53 52 38 22 11 19 32 34 21 28 16 19 8 7 8 7 10 13 20 29 37 40 58 66 63 73 82
55 41 6 10 16 43 56 46 26 3 21 12 19 8 10 10 5 16 28 29 35 36 42 58 75 62 61
19 8 15 21 58 63 45 41 37 19 28 17 10 10 5 0 5 8 9 21 32 39 52 52 64 53 63
9 26 43 48 31 27 33 35 28 15 15 24 3 10 2 2 2 2 6 12 19 32 47 52 51 52 59
29 42 18 11 16 21 36 34 21 2 2 13 4 13 5 0 0 0 1 5 8 23 41 39 42 50 41
4 0 1 1 6 8 26 29 26 16 0 8 19 14 9 0 0 0 0 0 1 6 20 33 40 25 44
1 2 2 4 2 4 10 23 22 23 0 17 22 22 21 26 1 0 1 1 3 0 3 9 24 45 16
3 2 9 16 15 15 15 17 19 17 14 17 16 24 20 21 14 0 0 5 9 9 16 14 32 36 42
5 17 16 19 16 17 18 17 16 15 12 9 20 18 21 15 17 14 16 7 8 4 15 10 3 7 6
4 4 6 17 15 19 22 19 17 11 6 6 14 21 13 16 8 3 10 14 12 10 11 8 11 6 1
7 5 5 10 15 16 17 20 17 8 10 12 10 14 22 16 12 10 10 9 3 7 7 11 10 1 1
13 14 15 13 18 15 14 17 13 7 7 15 17 17 13 6 2 19 5 4 8 9 8 12 10 6 5
16 17 17 18 13 14 15 15 11 15 18 20 19 19 20 12 0 0 10 6 7 11 7 9 5 2 0

GFSFLT2_con_sbcape_009.txt.gz
CAPE
0 0 0 0 0 7 1 1 0 19 21 18 20 30 40 46 49 58 63 69 71 79 101 94 103 97 106
1 1 4 0 9 12 12 8 0 1 14 21 26 32 37 43 38 51 56 63 70 75 91 74 85 84 107
3 0 2 20 13 1 1 4 0 3 9 13 21 19 29 39 37 39 41 44 43 49 53 59 69 71 94
3 2 26 7 1 6 2 0 0 4 0 4 19 13 20 12 15 19 26 34 37 46 44 39 46 67 85
20 21 2 0 3 1 5 4 0 4 0 0 0 0 0 2 2 9 17 25 26 33 50 66 81 79 80
23 8 2 0 1 6 14 19 2 0 1 0 0 0 0 0 3 12 15 16 21 30 38 58 69 64 58
10 4 0 0 5 5 10 5 3 0 0 2 0 0 0 0 4 7 7 7 14 18 24 40 52 62 67
1 0 2 4 14 6 6 0 0 0 4 2 0 0 0 0 0 2 3 5 5 9 10 20 37 48 49
8 26 26 14 11 1 0 7 2 1 0 0 0 0 0 0 0 0 0 0 2 4 9 14 19 49 52
2 0 0 0 6 2 2 1 2 2 0 0 2 5 0 0 0 0 0 0 1 3 7 8 12 10 12
0 0 0 0 1 0 0 5 3 2 0 1 1 1 2 1 0 0 0 0 0 0 1 4 14 22 5
0 0 1 1 1 0 0 0 2 2 3 3 0 0 0 0 1 0 0 0 0 0 0 3 18 36 48
3 0 0 0 0 0 2 3 1 1 0 0 0 0 1 0 0 0 3 1 0 0 2 5 1 0 0
1 0 0 0 0 1 4 5 4 0 0 0 0 2 1 0 1 0 1 1 0 0 1 1 1 0 1
3 2 2 2 2 1 2 2 5 3 2 0 0 0 0 1 1 0 1 0 0 0 0 0 0 0 0
1 1 2 3 1 0 1 3 3 2 2 1 0 1 0 0 6 0 0 0 0 1 1 2 0 0 0
2 1 0 0 2 0 0 0 0 1 0 0 0 0 1 0 0 3 0 0 0 2 4 5 5 1 0

GFSFLT2_con_sbcape_012.txt.gz
CAPE
0 0 0 0 0 0 0 0 0 8 15 22 21 33 41 46 46 48 47 51 59 72 96 95 93 93 99
0 0 0 0 0 0 0 0 0 2 12 18 22 25 30 38 45 39 44 52 57 65 86 77 68 70 79
0 0 0 0 0 0 0 0 0 0 5 5 13 15 17 32 37 36 30 35 40 38 39 56 69 78 76
0 0 0 1 0 0 0 0 0 0 0 1 5 2 11 5 10 12 16 22 29 35 30 41 43 54 69
2 0 0 0 0 0 0 0 0 0 0 0 0 0 0 0 0 4 11 23 22 25 27 32 34 52 72
10 0 0 0 0 0 0 0 0 0 0 0 0 0 0 0 1 8 14 22 20 20 22 28 31 40 56
0 0 0 0 0 0 0 0 0 0 0 0 0 0 0 0 0 7 10 16 12 15 18 12 23 23 40
0 0 0 0 0 3 0 0 0 0 0 0 0 0 0 0 1 1 1 3 8 12 11 15 16 17 23
4 16 22 14 7 0 0 0 0 0 0 0 0 0 0 0 0 0 0 2 1 5 10 13 15 16 10
0 0 0 0 1 0 0 0 0 0 0 0 0 1 0 0 0 0 0 0 4 3 6 7 7 3 5
0 0 0 0 0 0 0 0 1 0 0 0 0 0 0 0 0 0 0 0 0 0 1 4 5 10 3
0 0 0 0 0 0 0 0 0 0 0 2 0 0 0 0 0 0 0 0 0 0 0 0 4 14 22
0 0 0 0 0 0 0 0 0 0 0 0 0 0 0 0 0 0 0 0 0 0 0 0 0 3 0
0 0 0 0 0 0 0 0 0 0 0 0 0 0 0 0 0 1 0 0 1 0 0 0 1 1 3
1 0 0 0 0 0 0 0 0 0 0 0 0 0 0 0 0 0 0 1 0 0 0 5 1 0 0
0 0 0 0 0 0 0 0 0 0 0 0 0 0 0 0 1 0 0 0 0 0 1 2 1 0 0
0 0 0 0 0 0 0 0 0 0 0 0 0 0 0 0 0 4 0 0 0 0 0 0 1 2 0

GFSFLT2_con_sbcape_018.txt.gz
CAPE
0 0 0 0 0 0 0 0 0 1 6 8 13 19 26 29 32 38 44 47 55 63 90 83 86 86 87
0 0 0 0 0 0 0 0 0 0 4 9 8 12 17 24 35 32 36 32 44 50 46 60 56 71 90
0 0 0 0 0 0 0 0 0 0 0 0 0 8 15 19 22 20 19 22 30 31 34 38 43 60 64
0 0 0 0 0 0 0 0 0 0 0 0 3 9 4 3 2 2 2 9 21 28 29 39 43 52 71
0 0 0 0 0 0 0 0 0 0 0 0 0 0 0 0 0 0 2 15 26 29 28 31 48 65 73
0 0 0 0 0 0 0 0 0 0 0 0 0 0 0 0 0 5 10 16 24 24 31 29 38 46 50
0 0 0 0 0 0 0 1 0 0 0 0 0 0 0 0 0 2 5 11 15 21 24 23 38 50 68
0 0 0 0 0 0 0 0 0 0 0 0 0 0 0 0 0 1 2 4 11 16 21 23 19 16 15
1 6 10 10 1 0 0 0 0 0 0 0 0 0 0 0 0 0 0 4 4 4 13 18 17 11 6
0 0 0 0 0 0 0 0 0 0 0 0 0 0 0 0 0 0 0 0 2 8 13 13 16 3 2
0 0 0 0 0 0 0 0 0 0 0 0 0 0 0 0 0 0 0 0 0 0 1 4 9 13 3
0 0 0 0 0 0 0 0 0 0 0 0 0 0 0 0 0 0 0 0 0 0 0 0 5 10 19
0 0 0 0 0 0 0 0 0 0 0 0 0 0 0 0 0 0 0 0 0 0 0 0 0 0 2
0 0 0 0 0 0 0 0 0 0 0 0 0 0 0 0 0 0 0 0 0 0 0 0 0 0 1
0 2 1 0 0 0 0 0 0 0 0 0 0 0 0 0 0 0 0 0 0 0 0 0 0 0 0
0 0 0 0 0 0 0 0 0 0 0 0 0 0 0 0 0 0 0 0 0 0 0 0 0 0 0
0 0 0 0 0 0 0 0 0 0 0 0 0 0 0 0 0 0 0 0 0 2 2 1 0 0 0